Flag for Germany Weather past 2 weeks in Güstrow, Mecklenburg-Western Pomerania, Germany

Now
61 °F

Broken clouds.


Feels Like: 61 °F
Forecast: 54 / 61 °F
Wind: 12 mph from Southwest

Location: Laage

Current Time: Jul 29, 2015 at 12:04:18 PM

Latest Report: Jul 29, 2015 at 11:20 AM


Visibility: N/A

Pressure: 29.59 "Hg

Humidity: 72%

Dew point: 52 °F

Location of GüstrowLocation

Historic Weather in Güstrow — Graph

°F

Güstrow temperature yesterday

Maximum temperature yesterday: 64 °F (at 3:20 PM)
Minimum temperature yesterday: 57 °F (at 9:20 AM)
Average temperature yesterday: 60 °F

Past Weeks' High & Low Weather Summary

 TemperatureHumidityPressure
High82 °F (Jul 17, 6:20 PM)100% (Jul 18, 6:20 AM)30.09 "Hg (Jul 18, 6:20 AM)
Low48 °F (Jul 24, 4:20 AM)36% (Jul 24, 4:20 PM)29.45 "Hg (Jul 25, 3:20 PM)
Average62 °F76%29.83 "Hg
* Reported Jul 14 10:20 AM — Jul 29 10:20 AM, Güstrow, Weather by CustomWeather, © 2015

Note: Actual official high and low records may vary slightly from our data, if they occured in-between our weather recording intervals... More about our weather records

Advertising

Güstrow weather history for previous 24 hours

 ConditionsComfort  
Time TempWeatherWind HumidityBarometerVisibility
10:20 AM
Wed, Jul 29
59 °FPartly sunny.10 mph77%29.62 "HgN/A
9:20 AM57 °FPartly sunny.14 mph77%29.59 "HgN/A
8:20 AM57 °FPartly sunny.12 mph82%29.59 "HgN/A
7:20 AM57 °FBroken clouds.8 mph82%29.59 "HgN/A
6:20 AM55 °FPartly sunny.7 mph88%29.59 "HgN/A
5:20 AM55 °FPassing clouds.7 mph88%29.59 "HgN/A
4:20 AM54 °FPassing clouds.9 mph94%29.59 "HgN/A
3:20 AM55 °FPassing clouds.9 mph88%29.59 "HgN/A
2:20 AM55 °FPassing clouds.9 mph88%29.59 "HgN/A
1:20 AM55 °FPassing clouds.7 mph94%29.59 "HgN/A
12:20 AM55 °FPassing clouds.8 mph94%29.62 "HgN/A
11:20 PM
Tue, Jul 28
57 °FPartly cloudy.8 mph94%29.59 "HgN/A
10:20 PM59 °FPartly cloudy.14 mph88%29.59 "HgN/A
9:20 PM59 °FPartly sunny.10 mph94%29.59 "HgN/A
8:20 PM61 °FSprinkles. Broken clouds.15 mph88%29.56 "HgN/A
7:20 PM61 °FPartly sunny.7 mph88%29.56 "HgN/A
6:20 PM61 °FPartly sunny.10 mph88%29.56 "HgN/A
5:20 PM57 °FRain showers. Broken clouds.14 mph94%29.56 "Hg4 mi
4:20 PM63 °FRain showers. Broken clouds.8 mph83%29.53 "Hg4 mi
3:20 PM64 °FPartly sunny.14 mph73%29.53 "HgN/A
2:20 PM63 °FPartly sunny.16 mph77%29.53 "HgN/A
1:20 PM61 °FPartly sunny.14 mph83%29.53 "HgN/A
12:20 PM61 °FPartly sunny.14 mph83%29.53 "HgN/A
12:00 PM61 °FPartly sunny.13 mph83%29.50 "HgN/A
Weather by CustomWeather, © 2015

See weather overviewHow to use our weather pages